Location: Asheville, NC
(35.6000°N, 82.5500°W)
Time: 13:01:42
(UTC-04:00)

Vanguard 1 - Pass Details

Date: 07 December 2017
Orbit: 650 x 3833 km, 34.3° (Epoch: 17 June)

Event Time Altitude Azimuth Distance (km) Brightness Sun altitude
Rises 13:02:57 0° 259° (W) 6,992 14.7 30.9°
Reaches altitude 10° 13:08:18 10° 259° (W) 5,511 14.3 30.7°
Maximum altitude 13:22:55 82° 175° (S) 1,680 11.9 29.9°
Drops below altitude 10° 13:30:28 10° 89° (E) 3,017 12.5 29.5°
Sets 13:32:35 0° 88° (E) 3,736 12.9 29.4°
